• In Netherlands
  • List of Countries
  • For 7 days
  • Water Temperature
  • Satellite Maps
  • Weather Map
  • Weather Widgets
  • user-avatar
    Login

    Hourly Weather Oran

    Today, 27 May, Saturday

    Time Temperature Precipitation Wind Pressure Humidity
    00:00 +21°C° 0 mm 1 mps 750 mmHg 87%
    01:00 +20°C° 0 mm 1 mps 749 mmHg 88%
    02:00 +19°C° 0 mm 2 mps 749 mmHg 90%
    03:00 +19°C° 0 mm 2 mps 749 mmHg 91%
    04:00 +20°C° 0 mm 1 mps 749 mmHg 88%
    05:00 +21°C° 0 mm 1 mps 749 mmHg 84%
    06:00 +21°C° 0 mm 1 mps 750 mmHg 81%
    07:00 +23°C° 0 mm 1 mps 750 mmHg 72%
    08:00 +25°C° 0 mm 2 mps 750 mmHg 63%
    09:00 +27°C° 0 mm 2 mps 750 mmHg 54%
    10:00 +29°C° 0 mm 3 mps 750 mmHg 50%
    11:00 +30°C° 0 mm 4 mps 750 mmHg 46%
    12:00 +33°C° 0 mm 4 mps 750 mmHg 42%
    13:00 +33°C° 0 mm 5 mps 750 mmHg 43%
    14:00 +33°C° 0 mm 5 mps 749 mmHg 43%
    15:00 +33°C° 0 mm 5 mps 749 mmHg 44%
    16:00 +30°C° 0 mm 5 mps 749 mmHg 48%
    17:00 +29°C° 0 mm 5 mps 749 mmHg 53%
    18:00 +28°C° 0 mm 5 mps 749 mmHg 57%
    19:00 +26°C° 0 mm 4 mps 749 mmHg 66%
    20:00 +23°C° 0 mm 4 mps 750 mmHg 75%
    21:00 +21°C° 0 mm 3 mps 750 mmHg 83%
    22:00 +21°C° 0 mm 3 mps 750 mmHg 86%
    23:00 +20°C° 0 mm 3 mps 750 mmHg 89%

    Tomorrow, 28 May, Sunday

    Time Temperature Precipitation Wind Pressure Humidity
    00:00 +20°C° 0 mm 2 mps 750 mmHg 91%
    01:00 +20°C° 0 mm 2 mps 750 mmHg 92%
    02:00 +20°C° 0 mm 2 mps 750 mmHg 93%
    03:00 +19°C° 0 mm 2 mps 750 mmHg 93%
    04:00 +20°C° 0 mm 2 mps 750 mmHg 91%
    05:00 +20°C° 0 mm 2 mps 750 mmHg 89%
    06:00 +20°C° 0 mm 3 mps 751 mmHg 86%
    07:00 +22°C° 0 mm 3 mps 751 mmHg 80%
    08:00 +24°C° 0 mm 3 mps 751 mmHg 73%
    09:00 +25°C° 0 mm 3 mps 751 mmHg 67%
    10:00 +27°C° 0 mm 3 mps 751 mmHg 61%
    11:00 +29°C° 0 mm 3 mps 751 mmHg 55%
    12:00 +30°C° 0 mm 3 mps 751 mmHg 49%
    13:00 +30°C° 0 mm 4 mps 750 mmHg 49%
    14:00 +30°C° 0 mm 4 mps 750 mmHg 49%
    15:00 +32°C° 0 mm 4 mps 749 mmHg 49%
    16:00 +29°C° 0 mm 4 mps 749 mmHg 54%
    17:00 +28°C° 0 mm 4 mps 749 mmHg 59%
    18:00 +27°C° 0 mm 3 mps 749 mmHg 64%
    19:00 +25°C° 0.2 mm 3 mps 750 mmHg 72%
    20:00 +22°C° 0.2 mm 3 mps 750 mmHg 80%
    21:00 +21°C° 0.2 mm 2 mps 751 mmHg 88%
    22:00 +21°C° 0.2 mm 2 mps 751 mmHg 89%
    23:00 +21°C° 0.2 mm 3 mps 751 mmHg 89%

    Day after tomorrow, 29 May, Monday

    Time Temperature Precipitation Wind Pressure Humidity
    00:00 +21°C° 0.2 mm 3 mps 751 mmHg 90%
    01:00 +21°C° 0.2 mm 3 mps 751 mmHg 90%
    02:00 +21°C° 0.2 mm 3 mps 751 mmHg 89%
    03:00 +21°C° 0.2 mm 3 mps 751 mmHg 89%
    04:00 +21°C° 0.2 mm 3 mps 751 mmHg 89%
    05:00 +21°C° 0.2 mm 3 mps 751 mmHg 88%
    06:00 +21°C° 0.2 mm 4 mps 751 mmHg 87%
    07:00 +21°C° 0.2 mm 4 mps 751 mmHg 83%
    08:00 +22°C° 0.2 mm 4 mps 752 mmHg 78%
    09:00 +23°C° 0.2 mm 4 mps 752 mmHg 74%
    10:00 +23°C° 0 mm 4 mps 752 mmHg 70%
    11:00 +25°C° 0 mm 4 mps 752 mmHg 67%
    12:00 +26°C° 0 mm 4 mps 752 mmHg 63%
    13:00 +26°C° 0 mm 4 mps 751 mmHg 62%
    14:00 +26°C° 0 mm 4 mps 751 mmHg 61%
    15:00 +26°C° 0 mm 4 mps 751 mmHg 59%
    16:00 +26°C° 0.1 mm 4 mps 751 mmHg 62%
    17:00 +25°C° 0.1 mm 4 mps 751 mmHg 64%
    18:00 +24°C° 0.1 mm 3 mps 751 mmHg 67%
    19:00 +23°C° 0.2 mm 2 mps 751 mmHg 73%
    20:00 +22°C° 0.2 mm 1 mps 751 mmHg 79%
    21:00 +21°C° 0.2 mm 1 mps 752 mmHg 85%
    22:00 +18°C° 0.2 mm 0 mps 752 mmHg 86%
    23:00 +18°C° 0.2 mm 0 mps 752 mmHg 87%

    30 May, Tuesday

    Time Temperature Precipitation Wind Pressure Humidity
    00:00 +18°C° 0.2 mm 0 mps 751 mmHg 87%
    01:00 +20°C° 0.6 mm 1 mps 751 mmHg 88%
    02:00 +20°C° 0.6 mm 1 mps 751 mmHg 88%
    03:00 +20°C° 0.6 mm 1 mps 751 mmHg 89%
    04:00 +20°C° 0.6 mm 1 mps 751 mmHg 87%
    05:00 +21°C° 0.6 mm 1 mps 751 mmHg 86%
    06:00 +21°C° 0.6 mm 1 mps 751 mmHg 84%
    07:00 +22°C° 0.4 mm 1 mps 751 mmHg 77%
    08:00 +23°C° 0.4 mm 1 mps 751 mmHg 70%
    09:00 +25°C° 0.4 mm 1 mps 752 mmHg 63%
    10:00 +25°C° 0.8 mm 1 mps 751 mmHg 63%
    11:00 +26°C° 0.8 mm 2 mps 751 mmHg 62%
    12:00 +26°C° 0.8 mm 2 mps 751 mmHg 61%
    13:00 +26°C° 0.9 mm 3 mps 751 mmHg 61%
    14:00 +27°C° 0.9 mm 3 mps 750 mmHg 61%
    15:00 +27°C° 0.9 mm 3 mps 750 mmHg 60%
    16:00 +26°C° 0.9 mm 3 mps 750 mmHg 63%
    17:00 +26°C° 0.9 mm 3 mps 750 mmHg 67%
    18:00 +25°C° 0.9 mm 3 mps 750 mmHg 70%
    19:00 +24°C° 0.6 mm 3 mps 751 mmHg 76%
    20:00 +22°C° 0.6 mm 3 mps 751 mmHg 82%
    21:00 +21°C° 0.6 mm 2 mps 752 mmHg 88%
    22:00 +21°C° 0.2 mm 2 mps 752 mmHg 89%
    23:00 +20°C° 0.2 mm 2 mps 752 mmHg 90%

    31 May, Wednesday

    Time Temperature Precipitation Wind Pressure Humidity
    00:00 +20°C° 0.2 mm 2 mps 752 mmHg 91%
    01:00 +20°C° 0 mm 2 mps 752 mmHg 91%
    02:00 +20°C° 0 mm 2 mps 751 mmHg 92%
    03:00 +20°C° 0 mm 3 mps 751 mmHg 93%
    04:00 +20°C° 0 mm 3 mps 751 mmHg 92%
    05:00 +20°C° 0 mm 3 mps 752 mmHg 90%
    06:00 +21°C° 0 mm 3 mps 752 mmHg 89%
    07:00 +22°C° 0.1 mm 3 mps 752 mmHg 84%
    08:00 +23°C° 0.1 mm 2 mps 753 mmHg 80%
    09:00 +24°C° 0.1 mm 2 mps 753 mmHg 75%
    10:00 +25°C° 0.2 mm 3 mps 753 mmHg 72%
    11:00 +25°C° 0.2 mm 3 mps 753 mmHg 69%
    12:00 +26°C° 0.2 mm 4 mps 753 mmHg 66%
    13:00 +27°C° 0.2 mm 4 mps 752 mmHg 62%
    14:00 +28°C° 0.2 mm 5 mps 752 mmHg 58%
    15:00 +28°C° 0.2 mm 5 mps 752 mmHg 54%
    16:00 +28°C° 0.2 mm 5 mps 752 mmHg 56%
    17:00 +27°C° 0.2 mm 5 mps 752 mmHg 58%
    18:00 +26°C° 0.2 mm 5 mps 752 mmHg 60%
    19:00 +25°C° 0.2 mm 4 mps 752 mmHg 65%
    20:00 +23°C° 0.2 mm 4 mps 752 mmHg 69%
    21:00 +22°C° 0.2 mm 4 mps 753 mmHg 74%
    22:00 +22°C° 0.2 mm 4 mps 752 mmHg 75%
    23:00 +21°C° 0.2 mm 3 mps 752 mmHg 75%

    1 June, Thursday

    Time Temperature Precipitation Wind Pressure Humidity
    00:00 +21°C° 0.2 mm 3 mps 752 mmHg 75%
    01:00 +21°C° 0 mm 3 mps 752 mmHg 77%
    02:00 +21°C° 0 mm 3 mps 752 mmHg 78%
    03:00 +20°C° 0 mm 3 mps 751 mmHg 80%
    04:00 +21°C° 0 mm 3 mps 751 mmHg 77%
    05:00 +22°C° 0 mm 3 mps 752 mmHg 75%
    06:00 +22°C° 0 mm 3 mps 752 mmHg 73%
    07:00 +25°C° 0 mm 3 mps 752 mmHg 64%
    08:00 +28°C° 0 mm 3 mps 752 mmHg 54%
    09:00 +30°C° 0 mm 4 mps 752 mmHg 45%
    10:00 +32°C° 0 mm 4 mps 752 mmHg 41%
    11:00 +34°C° 0 mm 5 mps 751 mmHg 37%
    12:00 +36°C° 0 mm 5 mps 751 mmHg 32%
    13:00 +36°C° 0 mm 6 mps 751 mmHg 33%
    14:00 +36°C° 0 mm 6 mps 750 mmHg 34%
    15:00 +36°C° 0 mm 7 mps 750 mmHg 34%
    16:00 +34°C° 0 mm 7 mps 749 mmHg 39%
    17:00 +33°C° 0 mm 6 mps 749 mmHg 43%
    18:00 +30°C° 0 mm 6 mps 749 mmHg 48%
    19:00 +29°C° 0.4 mm 5 mps 750 mmHg 54%
    20:00 +27°C° 0.4 mm 4 mps 750 mmHg 61%
    21:00 +25°C° 0.4 mm 4 mps 750 mmHg 67%
    22:00 +25°C° 0.2 mm 3 mps 750 mmHg 67%
    23:00 +25°C° 0.2 mm 3 mps 750 mmHg 67%
    Show more